Regional Weather Roundup
Issued by NWS State College, PA

Home | Current Version | Previous Version | Text Only | Print | Product List | Glossary Off
Versions: 1 2 3 4 5 6 7 8 9 10 11 12 13 14 15 16 17 18 19 20 21 22 23 24 25 26 27 28 29 30 31 32 33 34 35 36 37 38 39 40 41 42 43 44 45 46 47 48 49 50

000
ASUS41 KCTP 220310
RWRCTP

REGIONAL WEATHER ROUNDUP
NATIONAL WEATHER SERVICE STATE COLLEGE PA
1100 PM EDT MON MAY 21 2018

Note: "fair" indicates few or no clouds below 12,000 feet with no
significant weather and/or obstructions to visibility.

* = STATION THAT DOES NOT REPORT PRECIPITATION /E.G. RAIN...SNOW...ETC/
    THUNDER OR FOG.

PAZ002>004-007>009-013>016-020>023-029>032-220400-
WESTERN PENNSYLVANIA

CITY           SKY/WX    TMP DP  RH WIND       PRES   REMARKS
ERIE           LGT RAIN  58  50  75 E7        30.10F
MEADVILLE      LGT RAIN  61  60  97 N7        30.12R
FRANKLIN*      LGT RAIN  65  58  78 N3        30.11S
NEW CASTLE     CLOUDY    68  64  87 CALM      30.09R
BEAVER COUNTY  NOT AVBL
BUTLER*        MOCLDY    67  59  75 NE5       30.08S
PITTSBURGH INT CLOUDY    71  62  73 CALM      30.07S
PITTSBURGH     FAIR      72  63  73 SE3       30.07S
INDIANA*       CLOUDY    72  61  68 S5        30.14F
LATROBE        FAIR      72  63  73 SW3       30.09F
WASHINGTON CO* FAIR      70  65  84 S5        30.12R
$$

PAZ004>006-010>012-017>019-024>028-033>037-041-042-045-046-049>053-220400-
CENTRAL PENNSYLVANIA

CITY           SKY/WX    TMP DP  RH WIND       PRES   REMARKS
BRADFORD       CLOUDY    63  47  55 SE3       30.15S
DUBOIS         FAIR      66  52  60 SE8       30.12F
CLEARFIELD     MOCLDY    65  51  60 N5        30.15S
JOHNSTOWN      FAIR      67  60  78 S10       30.14F
ALTOONA        MOCLDY    71  59  65 CALM      30.15S
STATE COLLEGE  CLOUDY    68  52  56 CALM      30.15S
WILLIAMSPORT   FAIR      64  53  67 N3        30.13R
SELINSGROVE    FAIR      56  52  86 CALM      30.15R
FT INDIANTOWN  FAIR      62  60  94 CALM      30.15R
CAPITAL CITY   FAIR      73  56  54 S7        30.14R
HARRISBURG     MOCLDY    70  58  65 VRB6      30.14R
YORK           MOCLDY    70  59  68 VRB3      30.15R
$$

PAZ038>040-043-044-047-048-054-055-060>062-067>071-220400-
EASTERN PENNSYLVANIA

CITY           SKY/WX    TMP DP  RH WIND       PRES   REMARKS
SCRANTON       FAIR      60  47  61 E8        30.15S
MOUNT POCONO   FAIR      53  49  86 CALM      30.19S
ALLENTOWN      FAIR      65  53  65 CALM      30.15S
QUAKERTOWN*    CLEAR     63  57  82 CALM      30.16S
READING        FAIR      66  57  72 SW3       30.14R
LANCASTER      FAIR      68  57  68 S8        30.15R
COATESVILLE    FAIR      61  54  77 CALM      30.19S
POTTSTOWN      FAIR      65  54  67 S6        30.18R
BLUE BELL      FAIR      63  52  67 S5        30.18S
DOYLESTOWN     FAIR      62  53  72 S5        30.16S
WILLOW GROVE   NOT AVBL
NORTH PHILA    FAIR      66  51  58 CALM      30.18S
PHILADELPHIA   FAIR      64  53  67 S6        30.18S
$$




USA.gov is the U.S. government's official web portal to all federal, state and local government web resources and services.